Home   Weather   Tychy   Past weeks

Flag for Poland Past Weather in Tychy, Poland — Yesterday and Last 2 Weeks

Now
32 °F

Clear.


Feels Like: 25 °F
Forecast: 36 / 44 °F
Wind: 8 mph from Southwest

Location: Katowice Airport

Current Time: Dec 9, 2016 at 7:05:36 am

Latest Report: Dec 9, 2016 at 6:30 am


Visibility: 4 mi

Pressure: 30.18 "Hg

Humidity: 87%

Dew Point: 28 °F

Location of TychyLocation

Past Weather in Tychy — Graph

°F

Tychy Temperature Yesterday

Maximum temperature yesterday: 39 °F (at 11:30 am)
Minimum temperature yesterday: 32 °F (at 2:30 am)
Average temperature yesterday: 36 °F

High & Low Weather Summary for the Past Weeks

 TemperatureHumidityPressure
High52 °F (Nov 24, 12:30 pm)100% (Nov 24, 9:00 pm)30.63 "Hg (Nov 24, 9:00 pm)
Low18 °F (Dec 5, 1:30 am)41% (Dec 5, 2:00 pm)29.45 "Hg (Dec 2, 3:30 am)
Average33 °F87%30.16 "Hg
* Reported Nov 24 5:00 am — Dec 9 5:30 am, Tychy, Weather by CustomWeather, © 2016

Note: Actual official high and low records may vary slightly from our data, if they occured in-between our weather recording intervals... More about our weather records

Advertising

Tychy Weather History for the Previous 24 Hours

Scroll right to see more
 ConditionsComfort  
Time TempWeatherWind HumidityBarometerVisibility
5:30 am
Fri, Dec 9
34 °FClear.9 mph87%30.21 "Hg4 mi
5:00 am34 °FFog.10 mph87%30.21 "Hg3 mi
4:30 am34 °FClear.9 mph87%30.21 "Hg4 mi
4:00 am36 °FLight rain. Passing clouds.12 mph81%30.21 "Hg4 mi
3:30 am36 °FLight rain. Fog.10 mph81%30.21 "Hg3 mi
3:00 am36 °FClear.10 mph70%30.21 "Hg6 mi
2:30 am36 °FPassing clouds.8 mph70%30.21 "Hg6 mi
2:00 am36 °FMostly cloudy.9 mph70%30.21 "Hg5 mi
1:30 am37 °FOvercast.10 mph70%30.21 "Hg5 mi
1:00 am37 °FOvercast.13 mph65%30.21 "Hg5 mi
12:30 am37 °FOvercast.14 mph65%30.21 "Hg4 mi
12:00 am37 °FOvercast.14 mph65%30.21 "Hg4 mi
11:30 pm
Thu, Dec 8
36 °FOvercast.14 mph70%30.24 "Hg4 mi
11:00 pm37 °FOvercast.12 mph65%30.24 "Hg4 mi
10:30 pm37 °FOvercast.14 mph65%30.24 "Hg4 mi
10:00 pm37 °FOvercast.14 mph65%30.24 "Hg4 mi
9:30 pm36 °FPassing clouds.15 mph70%30.24 "Hg4 mi
9:00 pm36 °FClear.14 mph70%30.24 "Hg4 mi
8:30 pm36 °FClear.13 mph70%30.24 "Hg4 mi
8:00 pm36 °FClear.14 mph70%30.24 "Hg4 mi
7:30 pm36 °FClear.12 mph70%30.27 "Hg4 mi
7:00 pm36 °FClear.15 mph70%30.27 "Hg4 mi
6:30 pm36 °FClear.16 mph70%30.27 "Hg4 mi
6:00 pm36 °FClear.15 mph70%30.27 "Hg4 mi
5:30 pm36 °FClear.14 mph70%30.27 "Hg4 mi
5:00 pm36 °FClear.16 mph75%30.27 "Hg4 mi
4:30 pm36 °FClear.14 mph75%30.27 "Hg4 mi
4:00 pm36 °FClear.13 mph75%30.27 "Hg4 mi
3:30 pm36 °FClear.14 mph75%30.27 "Hg4 mi
3:00 pm37 °FClear.14 mph70%30.27 "Hg4 mi
2:30 pm37 °FClear.16 mph70%30.30 "Hg5 mi
2:00 pm39 °FClear.17 mph70%30.30 "Hg4 mi
1:30 pm37 °FClear.16 mph75%30.30 "Hg4 mi
1:00 pm37 °FClear.16 mph75%30.30 "Hg5 mi
12:30 pm39 °FClear.16 mph70%30.30 "Hg5 mi
12:00 pm39 °FClear.17 mph70%30.30 "Hg5 mi
11:30 am39 °FClear.16 mph70%30.33 "Hg5 mi
11:00 am37 °FClear.17 mph75%30.33 "Hg5 mi
10:30 am36 °FClear.16 mph81%30.36 "Hg4 mi
10:00 am36 °FClear.16 mph75%30.36 "Hg5 mi
9:30 am36 °FClear.20 mph75%30.36 "Hg5 mi
9:00 am34 °FClear.20 mph81%30.36 "Hg5 mi
8:30 am34 °FClear.20 mph81%30.36 "Hg5 mi
8:00 am34 °FClear.18 mph81%30.36 "Hg6 mi
7:30 am34 °FClear.17 mph81%30.36 "Hg6 mi
7:00 am34 °FClear.20 mph81%30.36 "Hg10 mi
Weather by CustomWeather, © 2016

See weather overviewHow to use our weather pages